Temperature
21 20 20 19 19 19 21 22 23 22 22 22 22 22 21 20 20 20 20 20 20 20 20 19 19 19 19 19 19 19 19 19 19 19 19 19 19 19 19 19 19 18 18 18 18 18 18 18 18
21 20 20 20 19 20 21 22 22 23 23 23 22 22 21 20 20 20 20 20 20 20 20 19 19 19 19 19 19 19 19 19 19 19 19 19 19 19 18 18 18 18 18 18 18 18 18 18 18
21 20 20 19 20 21 22 23 23 23 23 23 22 21 21 20 20 20 20 20 20 20 20 19 19 19 19 19 19 19 19 19 19 19 19 19 19 18 18 18 18 18 18 18 18 18 18 18 18
21 20 20 20 21 22 22 22 23 23 23 23 22 21 21 21 21 21 20 20 20 20 20 19 19 19 19 19 19 19 19 19 19 19 19 19 19 18 18 18 18 18 18 18 18 18 18 18 18
21 21 20 20 22 23 23 23 23 23 23 22 22 21 20 20 21 21 20 20 20 20 19 19 19 19 19 19 19 19 19 19 19 19 19 19 19 18 18 18 18 18 18 18 18 18 18 18 18
21 20 20 21 22 23 23 23 23 23 22 22 22 20 20 20 21 21 20 20 20 20 19 19 19 19 19 19 19 19 19 19 19 19 19 19 19 18 18 18 18 18 18 18 18 18 18 18 18
21 19 21 22 22 23 24 24 23 22 22 22 22 20 20 20 21 20 20 20 20 19 19 19 19 19 19 19 19 19 19 19 19 19 19 19 19 18 18 18 18 18 18 18 18 18 18 18 18
22 20 21 21 22 23 24 24 24 23 23 22 22 21 20 20 20 20 20 20 20 19 19 19 19 19 19 19 19 19 19 19 19 19 19 19 18 18 18 18 18 18 18 18 18 18 18 18 18
22 20 21 22 23 23 24 24 24 23 23 22 22 22 21 21 20 20 20 20 19 19 19 19 19 19 19 19 19 19 19 19 19 18 19 19 18 18 18 18 18 18 18 18 18 18 18 18 18
22 21 23 23 23 23 24 24 23 23 22 22 22 21 21 21 20 20 20 20 20 19 19 19 19 19 19 19 19 19 19 19 19 19 19 18 18 18 18 18 18 18 18 18 18 18 18 18 18
22 22 23 24 25 24 24 24 24 23 22 22 22 21 21 21 20 20 20 20 20 20 19 19 19 19 19 19 19 19 19 19 19 19 18 18 18 18 18 18 18 18 18 18 18 18 18 18 18
23 24 24 25 25 25 24 24 23 23 23 23 23 22 21 21 20 20 20 20 20 20 19 19 19 19 19 19 19 19 19 19 19 19 19 19 18 18 18 18 18 18 18 18 18 18 18 18 18
24 24 25 25 25 24 24 23 23 23 23 23 22 22 21 21 20 20 20 20 20 20 19 19 19 19 19 19 19 19 19 19 19 19 19 19 18 18 18 18 18 18 18 18 18 18 18 18 18
24 24 25 25 25 24 23 23 23 22 23 22 22 21 21 21 21 20 20 20 20 20 19 19 19 19 19 19 19 19 19 19 19 19 19 19 18 18 18 18 18 18 18 18 18 18 18 18 18
25 24 24 24 25 24 24 23 22 23 22 22 21 21 21 21 21 20 20 20 20 20 19 19 19 19 19 19 19 19 19 19 19 18 18 18 18 18 18 18 18 18 18 18 18 18 18 18 18
24 23 23 24 24 24 24 23 23 23 22 21 21 21 21 21 21 20 20 20 20 20 20 19 19 19 19 19 19 19 19 19 18 18 18 18 18 18 18 18 18 18 18 18 18 18 18 18 18
23 23 23 24 24 24 23 23 23 22 22 21 21 21 21 21 21 20 20 20 20 20 20 19 19 19 19 19 19 18 18 18 18 18 18 18 18 18 18 18 18 18 18 18 18 18 18 18 18
23 23 24 24 24 24 23 22 22 22 22 21 21 21 21 21 21 21 21 20 20 20 19 19 19 19 19 19 18 18 18 18 18 18 18 18 18 18 18 18 18 18 18 18 18 18 18 18 18
24 24 23 24 24 23 23 22 22 22 21 21 21 21 21 21 21 21 21 20 20 20 19 19 19 19 19 19 19 19 19 18 18 18 18 18 18 18 18 18 18 18 18 18 18 18 18 18 17
24 24 23 24 24 23 22 22 22 21 21 21 21 21 21 21 21 21 21 20 20 20 20 19 19 19 19 19 19 18 18 18 18 18 18 18 18 18 18 18 18 18 18 18 17 17 17 17 17
24 24 24 24 23 23 23 22 22 21 21 21 21 21 21 21 21 21 20 20 20 20 20 19 19 19 19 19 18 18 18 18 18 18 18 18 18 17 17 17 18 17 17 17 17 17 17 17 17
24 25 25 24 23 21 23 21 22 21 20 20 20 20 20 21 21 21 20 20 20 20 20 19 19 19 19 18 18 19 19 19 18 18 18 18 17 17 17 17 17 17 17 17 17 17 17 17 17
25 25 24 23 22 21 21 21 21 20 20 20 20 20 21 21 21 21 20 20 20 20 19 19 19 19 19 18 18 18 18 18 18 18 18 18 18 17 17 17 17 17 17 17 17 17 17 16 16
25 23 22 20 20 21 21 21 21 20 20 20 20 21 21 21 21 21 20 20 20 20 19 19 19 19 19 18 18 18 18 18 18 18 18 18 17 17 17 17 17 17 17 17 16 16 16 16 16
24 22 21 22 20 21 21 21 20 21 21 20 20 21 21 21 21 20 20 20 20 20 20 19 19 19 19 19 18 18 18 18 18 18 17 17 17 17 17 17 17 17 17 16 16 16 16 16 16
23 22 21 22 21 20 21 20 21 21 21 21 21 21 21 21 21 20 21 21 20 20 20 19 19 19 19 18 18 18 18 18 17 17 17 17 17 17 17 17 16 16 16 16 16 16 16 16 16
23 21 21 19 20 20 20 20 21 21 20 20 20 20 20 20 20 20 21 20 20 20 20 20 19 19 19 19 18 18 18 17 17 17 17 17 17 17 16 16 16 16 16 16 16 16 16 16 15
23 20 19 19 20 21 21 21 20 20 20 19 19 19 20 20 20 20 20 20 20 20 20 20 19 19 19 19 18 18 18 17 17 17 17 17 17 16 16 16 16 16 16 16 15 15 15 15 15
23 21 18 17 18 20 21 21 21 20 19 19 18 19 20 20 20 20 20 20 20 20 20 20 19 19 19 18 18 18 18 17 17 17 17 17 16 16 16 16 16 16 16 15 15 15 15 15 15
23 22 19 21 20 18 19 20 21 19 19 19 19 19 20 20 20 20 20 20 20 20 20 19 19 19 18 18 18 18 17 17 17 17 17 16 16 16 16 16 16 16 15 15 15 15 15 15 15
Wind_Speed
8 6 3 1 3 4 2 3 1 2 3 3 4 5 6 4 2 2 1 3 4 3 2 3 4 6 7 7 7 8 8 9 9 9 9 9 8 8 8 7 6 7 9 9 9 9 10 9 10
6 4 1 2 4 3 3 2 2 2 3 4 4 5 5 4 2 3 2 2 4 3 2 3 5 6 7 7 7 6 7 8 9 9 8 8 8 7 7 6 5 6 7 8 9 9 9 9 9
6 3 1 3 2 2 1 0 2 3 3 2 3 4 4 2 2 3 2 5 4 3 2 3 5 6 7 7 7 6 5 8 9 8 8 8 7 6 6 5 5 6 7 7 8 8 8 8 8
3 1 2 3 2 1 2 2 2 3 3 4 4 4 3 2 2 3 5 6 4 2 3 3 5 6 6 6 6 6 7 9 8 8 8 8 7 6 5 5 4 5 6 7 7 6 6 6 6
1 2 4 4 3 2 0 1 1 3 2 3 4 4 3 4 5 8 7 5 4 3 2 3 4 5 5 5 5 6 7 7 8 7 7 7 6 5 4 4 4 4 5 5 5 5 4 4 5
3 3 4 2 3 2 1 1 3 3 3 3 4 4 2 2 5 6 6 4 3 3 2 2 3 4 4 4 5 5 6 7 6 6 6 6 5 4 3 3 2 2 3 4 4 4 3 3 4
3 3 2 0 1 1 1 2 2 3 3 2 3 4 1 1 2 5 5 4 3 2 2 1 1 2 2 3 4 4 5 5 5 5 5 5 4 3 3 2 2 2 2 3 3 3 3 3 3
3 3 2 1 1 1 1 2 1 3 2 3 3 5 3 3 4 6 5 4 3 2 1 1 1 1 1 1 2 3 3 4 4 4 3 3 2 2 1 1 1 1 1 2 2 2 2 2 3
3 4 0 2 3 2 1 2 1 3 4 3 2 3 4 8 7 6 5 4 2 1 1 1 1 1 0 1 1 2 3 3 2 2 2 1 1 1 1 1 1 0 1 1 1 2 2 1 1
3 2 3 4 4 3 2 2 2 3 3 2 3 5 8 9 8 7 5 4 2 2 1 0 1 1 1 1 2 2 2 2 2 1 1 2 2 2 2 2 2 1 1 1 1 1 1 1 1
3 3 3 2 2 3 2 1 1 6 2 4 6 8 9 9 7 6 5 4 3 2 1 1 1 1 2 1 2 1 1 2 2 2 2 2 2 2 3 2 3 3 2 2 3 3 2 2 2
2 3 3 1 2 2 2 2 2 2 4 4 8 10 9 9 8 7 6 4 2 2 1 1 1 2 1 1 1 1 1 1 1 2 2 2 2 2 2 2 2 3 3 3 3 2 2 1 1
0 2 2 1 3 2 3 2 2 0 2 7 9 8 8 8 6 4 4 3 3 2 1 1 2 2 2 1 1 1 1 1 1 1 1 1 1 1 1 2 2 2 2 2 1 1 1 1 0
1 1 2 1 2 2 3 1 2 1 5 8 8 6 6 6 6 4 3 3 4 3 3 2 2 2 2 2 1 1 1 1 1 1 1 1 1 1 1 2 2 2 2 1 1 1 1 0 0
1 3 4 2 1 1 4 3 0 3 7 7 6 5 4 4 4 5 5 4 4 4 3 3 3 2 2 1 1 1 1 1 1 1 1 1 1 1 1 1 1 1 2 1 1 1 1 1 1
3 3 2 3 1 2 5 2 3 5 8 6 5 4 4 3 4 4 4 4 4 3 3 3 3 3 2 2 1 1 1 1 0 1 1 1 1 1 1 1 1 1 1 1 1 1 1 1 1
3 1 3 3 0 2 3 3 2 5 7 5 4 4 4 4 4 4 4 4 4 4 4 4 3 3 3 2 1 1 1 1 1 1 1 1 1 1 1 1 1 1 1 1 1 1 0 0 1
3 2 3 3 2 3 3 2 1 4 6 5 4 4 4 5 5 4 4 4 3 3 4 4 3 3 2 2 2 2 2 2 2 2 2 1 1 1 1 0 1 1 1 1 1 1 1 0 0
3 2 4 4 2 3 2 2 2 3 4 4 4 4 5 5 4 3 3 3 3 3 3 3 3 2 2 2 1 1 1 1 2 2 2 2 2 1 1 1 1 1 1 1 1 1 1 2 1
3 2 3 2 2 3 1 2 1 3 5 5 5 5 5 3 2 2 2 3 3 3 3 3 3 2 2 2 1 1 1 0 1 1 2 2 2 2 1 1 1 1 1 2 2 1 1 1 2
3 5 4 2 3 4 3 5 3 1 1 2 3 3 3 5 4 3 3 3 3 3 3 3 2 2 2 2 2 2 2 2 2 2 2 2 2 2 1 1 1 1 1 1 1 1 1 1 1
4 5 4 4 3 1 2 2 5 2 2 2 3 3 3 3 3 3 3 3 3 3 3 2 2 2 2 2 2 3 2 1 1 1 1 2 2 2 2 2 2 2 2 1 1 2 1 1 1
4 1 3 3 4 2 2 2 6 2 3 5 5 4 4 4 4 4 4 4 3 3 3 2 2 2 2 2 3 3 1 1 0 1 1 2 2 2 2 2 1 1 1 1 1 2 2 1 1
4 6 6 6 5 2 3 3 5 3 5 4 4 4 4 4 4 4 3 3 2 2 2 2 3 2 2 2 2 3 2 1 0 1 1 1 1 1 1 1 1 1 1 1 0 1 2 1 1
5 6 4 5 4 4 2 2 7 5 4 4 5 5 4 4 4 4 4 4 4 3 3 2 2 2 2 2 2 2 2 2 2 2 1 0 1 1 1 0 0 0 0 1 1 1 1 1 1
3 7 6 4 4 4 2 4 5 3 2 1 3 3 4 4 4 5 5 5 4 4 4 3 3 2 1 2 2 2 2 2 2 2 1 1 1 1 1 0 0 0 0 1 1 1 1 1 1
5 3 5 6 2 1 4 5 5 2 3 2 3 3 3 4 4 4 4 4 4 4 3 4 3 2 2 2 1 1 1 1 1 1 1 1 1 1 0 0 0 0 0 1 1 1 1 1 1
4 8 6 5 4 2 4 4 4 4 2 1 2 3 3 3 4 4 4 4 3 3 3 3 3 3 2 2 1 1 1 1 1 0 0 1 1 1 1 1 1 1 0 0 1 0 0 1 0
3 4 6 5 5 5 3 6 4 7 5 4 4 3 4 4 4 4 3 3 3 3 3 3 2 2 2 1 1 1 1 0 1 0 1 1 1 1 0 0 0 0 1 0 0 1 0 0 1
3 5 7 5 3 4 4 7 4 4 4 4 4 3 3 3 3 3 3 3 3 3 3 3 2 2 2 2 2 2 1 1 1 1 1 1 1 1 1 1 0 1 1 1 1 1 1 1 1
Wind_Direction
156 145 152 162 48 44 5 332 2 33 45 40 65 78 94 83 107 150 304 121 116 121 147 160 139 124 121 116 117 122 130 134 136 137 137 136 139 142 145 147 155 165 170 172 168 166 166 168 169
150 157 172 56 70 54 342 327 46 63 137 133 77 69 71 64 76 110 116 131 125 130 140 156 139 126 121 118 118 119 130 137 137 138 137 136 137 135 138 141 147 157 162 167 169 168 170 172 174
164 186 76 60 77 149 206 326 108 83 83 73 72 60 75 83 113 148 165 135 118 122 138 158 141 133 129 125 121 116 126 144 140 140 140 139 134 129 129 131 136 147 156 160 161 164 167 171 177
166 96 52 57 23 277 195 190 142 107 57 51 85 68 56 48 136 138 127 131 127 122 136 159 146 136 129 125 122 115 108 128 134 136 139 140 136 130 127 127 121 135 147 152 157 161 166 174 180
100 75 48 29 347 331 109 194 140 97 70 62 89 91 41 14 85 111 122 129 134 123 132 155 142 132 127 127 126 120 114 118 122 127 134 138 135 131 129 125 120 125 136 141 147 154 165 182 189
60 60 61 15 342 347 11 123 111 92 91 87 93 96 46 34 95 117 121 123 133 136 133 148 151 137 126 117 114 119 120 122 125 127 130 137 140 143 142 139 141 140 143 141 147 155 164 174 180
96 83 80 358 331 350 133 111 114 108 93 107 116 99 49 39 109 116 108 108 105 110 116 118 133 132 127 115 115 120 125 130 134 136 137 139 145 155 152 151 173 168 157 155 161 165 168 169 168
128 95 51 347 196 250 130 101 101 106 105 114 110 131 181 197 125 103 92 92 91 90 88 70 73 92 85 98 106 117 122 122 125 130 133 138 145 143 131 138 171 178 166 158 166 172 173 185 185
117 73 49 222 198 226 155 112 90 87 104 93 95 137 151 134 120 105 91 82 85 111 84 66 63 71 88 93 95 87 91 96 100 108 114 92 38 22 1 25 4 36 107 116 153 168 160 153 162
104 121 235 221 195 181 179 141 145 105 97 91 83 90 116 127 132 133 135 144 164 191 199 113 124 112 99 108 74 51 50 45 48 54 48 51 41 17 9 3 4 35 60 70 79 90 91 85 85
155 198 247 255 172 151 155 165 130 136 185 197 168 150 137 139 144 151 158 167 187 188 179 162 166 122 111 79 70 59 51 37 31 34 45 48 38 20 14 5 359 9 24 35 38 44 43 62 87
181 264 257 256 131 129 162 152 110 168 219 172 155 149 146 152 161 169 174 183 174 144 162 152 144 116 115 102 68 64 51 33 29 17 44 69 51 27 20 23 13 23 29 44 44 52 46 55 82
203 307 326 108 105 124 108 106 126 305 109 115 123 133 148 158 166 176 177 176 159 155 165 153 122 122 122 108 71 79 65 42 19 22 27 86 83 30 33 45 36 29 35 52 52 61 65 36 329
275 322 355 21 103 104 109 68 69 208 121 117 127 140 157 164 165 162 165 168 168 173 174 153 134 136 120 108 99 52 49 35 35 21 3 68 110 85 65 47 36 24 27 44 88 94 97 46 11
1 17 8 2 107 132 102 18 259 164 126 127 140 151 160 166 161 175 185 181 181 174 160 152 150 117 108 107 120 104 53 49 35 2 27 72 103 112 100 74 31 359 13 31 64 65 75 72 31
43 48 352 299 71 125 123 248 253 154 139 148 159 163 170 188 194 194 185 181 177 163 154 158 150 130 129 129 154 103 80 81 38 27 45 74 80 90 101 81 9 347 24 51 66 59 59 26 28
36 358 280 301 249 128 149 228 243 157 154 168 176 177 181 194 215 209 192 185 178 169 156 150 144 145 148 128 103 83 79 74 52 46 42 33 69 98 115 86 348 3 51 54 59 55 73 23 355
245 257 277 269 254 123 155 241 243 162 164 180 184 184 194 208 221 210 198 189 171 162 154 151 148 136 122 94 66 58 52 45 49 41 27 14 29 58 99 97 15 46 56 43 43 52 42 59 319
197 214 267 269 236 136 188 256 243 162 161 181 194 197 211 225 227 196 186 169 149 151 154 157 148 135 117 108 116 93 25 21 29 30 24 21 24 27 76 49 46 63 80 43 55 76 50 31 29
201 242 272 323 24 142 106 322 323 152 186 192 194 205 217 217 218 203 187 166 168 169 166 157 157 154 149 159 161 141 111 54 41 10 20 32 41 37 57 66 65 69 78 50 41 66 67 37 52
233 210 221 203 37 51 61 345 320 250 167 163 187 203 206 202 204 201 183 182 168 168 175 178 172 157 149 137 108 85 60 34 21 13 10 10 32 49 49 64 86 85 99 82 39 58 94 80 30
260 235 192 161 108 339 88 282 292 268 244 217 222 212 211 203 192 186 177 172 175 183 169 166 164 151 140 133 130 128 131 167 271 296 336 0 20 37 50 61 73 73 85 88 59 69 71 98 53
218 92 102 104 122 60 20 153 288 307 257 245 233 220 208 192 188 183 182 184 180 171 165 173 156 151 152 149 158 151 157 194 305 9 12 3 9 31 56 78 81 77 79 72 61 70 77 95 113
139 71 58 51 69 16 271 182 278 250 235 244 225 215 196 180 182 181 173 160 161 152 151 155 153 174 176 169 167 169 180 180 88 347 338 344 348 358 13 83 80 85 92 80 66 85 91 92 95
85 86 33 6 11 265 269 195 253 264 248 225 209 206 188 171 175 178 174 175 181 179 172 160 161 198 198 181 188 193 197 198 214 239 238 266 311 314 314 341 109 270 196 111 93 92 83 88 98
157 139 156 198 226 275 322 244 262 291 318 146 158 163 157 158 171 179 184 182 185 190 185 179 185 206 204 194 211 210 200 205 231 241 229 223 240 262 274 227 231 252 139 110 104 101 109 86 89
130 138 154 132 133 301 291 292 308 31 36 63 104 122 147 166 171 175 176 175 174 178 185 186 187 197 202 197 194 210 233 221 227 242 220 241 259 259 326 188 183 325 60 116 128 123 155 130 134
121 139 100 112 141 254 293 278 255 263 244 221 148 154 166 163 165 172 179 182 185 178 170 157 167 186 184 172 183 189 210 222 215 169 219 256 293 336 14 22 28 9 1 188 153 174 242 137 229
98 92 102 110 146 157 244 269 230 213 207 199 205 189 170 167 174 178 183 182 172 153 154 151 146 137 130 142 139 104 72 98 105 176 255 265 299 308 316 315 6 340 320 301 182 232 217 195 301
154 157 146 151 203 171 186 261 282 191 187 180 194 184 160 161 169 164 161 153 146 149 148 149 155 151 146 128 112 103 78 62 58 16 307 272 270 287 275 270 253 257 275 270 248 254 253 226 260
Height
1491 1491 1492 1494 1496 1503 1504 1496 1491 1490 1490 1490 1489 1489 1491 1494 1497 1502 1497 1495 1495 1495 1494 1494 1494 1493 1493 1493 1493 1494 1494 1495 1496 1497 1498 1499 1499 1500 1500 1499 1498 1498 1499 1502 1505 1508 1511 1513 1515
1491 1492 1494 1495 1501 1512 1506 1494 1492 1490 1490 1490 1490 1491 1492 1494 1495 1496 1496 1496 1496 1496 1495 1495 1495 1495 1494 1494 1495 1495 1494 1495 1497 1498 1499 1500 1500 1500 1500 1499 1498 1497 1498 1501 1504 1507 1510 1512 1514
1492 1493 1495 1497 1504 1509 1503 1494 1491 1490 1491 1491 1492 1493 1494 1496 1496 1496 1497 1497 1497 1497 1497 1497 1497 1497 1496 1497 1497 1495 1489 1492 1497 1499 1500 1501 1501 1501 1501 1500 1498 1497 1499 1501 1504 1507 1510 1512 1514
1494 1495 1496 1501 1504 1499 1495 1493 1491 1491 1492 1492 1493 1495 1496 1498 1497 1498 1498 1498 1498 1498 1498 1498 1498 1498 1498 1498 1498 1497 1492 1494 1498 1500 1501 1502 1502 1502 1502 1502 1500 1499 1500 1502 1505 1507 1510 1512 1514
1494 1495 1500 1506 1502 1496 1492 1492 1492 1492 1493 1494 1494 1496 1498 1499 1499 1499 1499 1499 1499 1499 1499 1500 1500 1500 1500 1500 1500 1500 1499 1500 1501 1502 1503 1503 1504 1504 1504 1504 1503 1502 1503 1504 1506 1508 1511 1512 1513
1496 1497 1508 1511 1503 1495 1493 1492 1493 1493 1494 1495 1496 1497 1500 1500 1500 1500 1500 1500 1501 1501 1501 1501 1502 1502 1502 1502 1502 1502 1502 1503 1503 1504 1505 1505 1506 1506 1506 1506 1506 1505 1506 1507 1508 1510 1511 1512 1513
1497 1501 1508 1507 1504 1498 1494 1493 1494 1494 1496 1497 1497 1499 1500 1501 1502 1502 1502 1502 1502 1503 1503 1503 1503 1503 1503 1504 1504 1504 1504 1505 1505 1506 1506 1507 1507 1507 1508 1507 1508 1508 1508 1509 1510 1511 1512 1513 1514
1497 1501 1506 1506 1504 1500 1494 1494 1495 1495 1497 1498 1498 1499 1501 1502 1502 1503 1503 1503 1503 1504 1504 1504 1504 1505 1505 1505 1505 1506 1506 1507 1507 1507 1508 1508 1509 1509 1509 1509 1509 1509 1510 1510 1511 1512 1512 1513 1514
1497 1505 1510 1504 1502 1498 1494 1495 1496 1497 1497 1498 1499 1500 1501 1502 1503 1503 1503 1504 1504 1504 1505 1505 1505 1506 1506 1507 1507 1507 1508 1508 1508 1509 1509 1510 1510 1510 1510 1510 1510 1510 1511 1511 1511 1512 1513 1514 1514
1498 1507 1502 1496 1494 1494 1493 1495 1496 1498 1498 1499 1500 1500 1501 1502 1503 1503 1503 1504 1504 1505 1506 1506 1507 1507 1507 1508 1508 1509 1509 1509 1510 1510 1511 1511 1511 1511 1511 1511 1511 1511 1511 1512 1512 1513 1514 1514 1515
1497 1500 1494 1492 1492 1492 1493 1495 1496 1497 1499 1498 1499 1500 1501 1502 1503 1504 1504 1505 1505 1506 1507 1507 1508 1508 1508 1509 1509 1510 1510 1510 1511 1511 1512 1512 1512 1512 1512 1512 1512 1512 1513 1513 1513 1514 1514 1515 1515
1496 1494 1493 1492 1492 1493 1494 1496 1497 1497 1497 1497 1498 1500 1501 1502 1503 1504 1505 1506 1507 1508 1508 1509 1509 1509 1510 1510 1510 1511 1511 1512 1512 1512 1513 1513 1513 1513 1513 1512 1513 1513 1513 1513 1513 1514 1514 1514 1515
1495 1494 1493 1493 1493 1494 1495 1497 1498 1498 1498 1499 1500 1502 1503 1504 1505 1506 1507 1507 1508 1508 1509 1510 1510 1511 1511 1511 1511 1512 1512 1513 1513 1513 1514 1514 1514 1513 1513 1513 1513 1513 1513 1513 1513 1514 1514 1514 1514
1495 1494 1494 1494 1494 1495 1497 1498 1499 1499 1499 1500 1502 1503 1504 1505 1506 1507 1507 1507 1508 1508 1509 1511 1511 1512 1512 1512 1512 1513 1513 1513 1514 1514 1514 1514 1514 1514 1514 1514 1513 1513 1513 1514 1513 1514 1514 1514 1513
1495 1496 1496 1495 1495 1496 1498 1502 1500 1500 1501 1502 1504 1505 1506 1507 1507 1507 1507 1508 1508 1509 1510 1511 1512 1512 1512 1513 1514 1514 1514 1514 1514 1515 1515 1515 1515 1514 1514 1514 1514 1513 1513 1513 1513 1513 1513 1513 1513
1497 1502 1507 1498 1496 1497 1502 1510 1500 1501 1501 1503 1504 1506 1507 1507 1508 1508 1508 1508 1509 1510 1510 1511 1512 1512 1513 1513 1514 1514 1514 1515 1515 1515 1515 1515 1515 1515 1515 1514 1514 1514 1513 1513 1513 1513 1513 1513 1512
1506 1513 1510 1502 1497 1497 1502 1506 1500 1501 1502 1503 1504 1506 1507 1507 1508 1508 1509 1509 1509 1510 1511 1511 1512 1512 1513 1513 1514 1514 1514 1515 1515 1515 1515 1515 1515 1515 1515 1514 1514 1514 1513 1513 1513 1512 1512 1512 1512
1513 1512 1510 1507 1498 1499 1503 1504 1500 1501 1502 1503 1505 1505 1506 1506 1507 1508 1509 1509 1510 1510 1511 1511 1512 1512 1513 1514 1514 1514 1515 1515 1515 1515 1515 1515 1515 1515 1514 1514 1514 1514 1513 1513 1512 1512 1512 1511 1511
1502 1507 1509 1503 1496 1500 1503 1504 1501 1501 1502 1503 1504 1504 1505 1505 1507 1508 1509 1509 1510 1510 1511 1511 1512 1513 1513 1514 1514 1514 1515 1515 1515 1515 1515 1515 1515 1514 1514 1514 1514 1513 1513 1513 1512 1512 1511 1511 1510
1501 1507 1507 1502 1497 1500 1505 1505 1501 1501 1501 1502 1503 1503 1504 1505 1506 1507 1509 1509 1509 1510 1511 1511 1512 1513 1514 1514 1515 1515 1515 1515 1515 1515 1515 1515 1515 1514 1514 1513 1513 1513 1513 1512 1512 1511 1511 1510 1510
1501 1504 1504 1504 1501 1501 1505 1510 1504 1501 1501 1501 1502 1503 1503 1504 1505 1506 1507 1508 1509 1510 1510 1511 1512 1513 1514 1515 1515 1515 1515 1515 1515 1515 1515 1514 1514 1514 1513 1513 1513 1512 1512 1512 1511 1511 1510 1510 1510
1503 1493 1495 1499 1509 1517 1511 1526 1509 1503 1501 1501 1501 1502 1502 1503 1504 1505 1506 1507 1508 1509 1510 1511 1512 1513 1514 1515 1515 1515 1515 1514 1514 1514 1514 1514 1514 1513 1513 1512 1512 1512 1511 1511 1511 1510 1510 1510 1509
1494 1490 1494 1500 1509 1518 1516 1524 1517 1505 1504 1501 1500 1500 1501 1502 1503 1504 1505 1506 1507 1509 1510 1511 1512 1512 1513 1514 1514 1514 1514 1514 1514 1514 1514 1513 1513 1513 1512 1512 1511 1511 1510 1510 1510 1509 1509 1509 1509
1489 1495 1501 1509 1517 1529 1521 1525 1521 1509 1503 1499 1498 1498 1499 1501 1502 1503 1505 1506 1507 1508 1509 1510 1511 1512 1513 1513 1514 1514 1514 1514 1514 1513 1513 1513 1512 1512 1511 1511 1510 1510 1509 1509 1509 1508 1508 1508 1508
1492 1509 1528 1530 1537 1534 1519 1522 1518 1500 1496 1495 1495 1496 1497 1499 1501 1502 1503 1505 1506 1507 1509 1510 1510 1511 1512 1512 1513 1513 1513 1513 1513 1513 1512 1512 1511 1511 1510 1510 1510 1509 1508 1508 1508 1507 1507 1507 1507
1496 1505 1528 1537 1541 1533 1521 1523 1509 1496 1493 1492 1493 1494 1496 1497 1499 1501 1502 1504 1505 1506 1508 1509 1509 1510 1511 1512 1512 1512 1513 1512 1512 1512 1511 1511 1510 1510 1510 1509 1509 1508 1507 1507 1507 1506 1506 1506 1505
1497 1505 1506 1523 1529 1535 1527 1516 1503 1495 1495 1494 1494 1494 1495 1497 1498 1500 1501 1503 1504 1505 1506 1508 1508 1509 1510 1510 1511 1511 1511 1511 1511 1511 1511 1510 1509 1509 1508 1508 1507 1507 1506 1506 1506 1505 1504 1504 1504
1489 1498 1512 1524 1536 1539 1529 1521 1515 1501 1498 1496 1495 1495 1495 1496 1498 1499 1500 1502 1504 1505 1506 1507 1507 1508 1509 1510 1510 1510 1510 1510 1510 1509 1509 1509 1508 1508 1507 1506 1506 1505 1505 1504 1504 1504 1504 1503 1503
1494 1501 1511 1523 1525 1537 1538 1525 1497 1496 1494 1494 1494 1493 1494 1495 1496 1498 1500 1501 1503 1504 1505 1506 1507 1508 1508 1508 1509 1509 1509 1509 1509 1508 1507 1507 1506 1506 1505 1505 1504 1503 1502 1502 1502 1502 1502 1502 1501
1488 1494 1505 1516 1523 1528 1531 1521 1490 1490 1491 1492 1493 1493 1494 1495 1496 1498 1499 1500 1501 1503 1504 1505 1506 1506 1507 1508 1508 1508 1508 1508 1507 1507 1506 1505 1504 1504 1503 1503 1502 1501 1501 1500 1500 1500 1500 1499 1499